Flight Track Log - Related Links

Times and Time Zones

All times are in EDT time to prevent confusion due to time zone crossing. See the N68JV flight status page for this flight to view local times or setup timezone preferences in your user account.

Time Position Orientation Groundspeed Altitude Reporting Facility
EDT Latitude Longitude Course Direction KTS MPH feet Rate Location/Type
Fri 11:06:57 AM 28.0000 -82.5333 360° North 168 193 700  Level Tampa TRACON
Fri 11:07:39 AM 28.0333 -82.5333 360° North 234 269 2,400 1,882 Climbing Tampa TRACON
Fri 11:08:39 AM 28.1000 -82.5167 12° North 244 281 3,900 1,100 Climbing Tampa TRACON
Fri 11:09:39 AM 28.1667 -82.5333 348° North 210 242 4,600 947 Climbing Tampa TRACON
Fri 11:10:33 AM 28.2167 -82.5500 344° North 235 270 5,700 1,650 Climbing Tampa TRACON
Fri 11:11:39 AM 28.3000 -82.5833 341° North 263 303 7,900 2,263 Climbing Tampa TRACON
Fri 11:13:28 AM 28.4189 -82.6472 335° Northwest 314 361 12,300 2,556 Climbing Jacksonville Center
Fri 11:14:28 AM 28.4942 -82.6822 338° Northwest 308 354 15,100 2,750 Climbing Jacksonville Center
Fri 11:15:28 AM 28.5672 -82.7225 334° Northwest 297 342 17,800 2,450 Climbing Jacksonville Center
Fri 11:16:28 AM 28.6422 -82.7625 335° Northwest 297 342 20,000 2,300 Climbing Jacksonville Center
Fri 11:17:28 AM 28.7239 -82.8050 335° Northwest 292 336 22,400 2,200 Climbing Jacksonville Center
Fri 11:18:28 AM 28.7969 -82.8453 334° Northwest 297 342 24,400 2,000 Climbing Jacksonville Center
Fri 11:19:28 AM 28.8761 -82.8856 336° Northwest 297 342 26,400 1,800 Climbing Jacksonville Center
Fri 11:20:28 AM 28.9556 -82.9258 336° Northwest 297 342 28,000 800 Climbing Jacksonville Center
Fri 11:21:28 AM 29.0453 -82.9661 339° North 317 365 28,000  Level Jacksonville Center
Fri 11:22:28 AM 29.1411 -83.0139 336° Northwest 350 403 28,000  Level Jacksonville Center
Fri 11:23:28 AM 29.2475 -83.0664 337° Northwest 383 441 28,000  Level Jacksonville Center
Fri 11:24:28 AM 29.3519 -83.1164 337° Northwest 397 457 28,000  Level Jacksonville Center
Fri 11:25:28 AM 29.4583 -83.1717 336° Northwest 410 472 28,000  Level Jacksonville Center
Fri 11:26:28 AM 29.5564 -83.2197 337° Northwest 418 481 28,000  Level Jacksonville Center
Fri 11:27:28 AM 29.6564 -83.2703 336° Northwest 410 472 28,000  Level Jacksonville Center
Fri 11:28:28 AM 29.7647 -83.3233 337° Northwest 405 466 28,000  Level Jacksonville Center
Fri 11:29:28 AM 29.8647 -83.3811 333° Northwest 405 466 28,000 -450 Level Jacksonville Center
Fri 11:30:28 AM 29.9081 -83.4917 294° West 370 426 27,100 -500 Descending Jacksonville Center
Fri 11:31:28 AM 29.8222 -83.5725 219° Southwest 273 314 27,000 -50 Descending Jacksonville Center
Fri 11:32:29 AM 29.7011 -83.5644 177° South 303 349 27,000  Level Jacksonville Center
Fri 11:33:28 AM 29.5822 -83.5469 173° South 353 406 27,000 -50 Level Jacksonville Center
Fri 11:34:28 AM 29.4464 -83.5342 175° South 445 512 26,900 -650 Descending Jacksonville Center
Fri 11:35:28 AM 29.3233 -83.5239 176° South 445 512 25,700 -1,400 Descending Jacksonville Center
Fri 11:36:28 AM 29.2025 -83.4992 170° South 440 506 24,100 -1,500 Descending Jacksonville Center
Fri 11:37:28 AM 29.0983 -83.4319 151° Southeast 426 490 22,700 -1,450 Descending Jacksonville Center
Fri 11:38:28 AM 28.9942 -83.3697 152° Southeast 426 490 21,200 -1,450 Descending Jacksonville Center
Fri 11:39:28 AM 28.8964 -83.3053 150° Southeast 416 479 19,800 -1,400 Descending Jacksonville Center
Fri 11:40:28 AM 28.7983 -83.2433 151° Southeast 410 472 18,400 -1,391 Descending Jacksonville Center
Fri 11:41:59 AM 28.6500 -83.1500 151° Southeast 396 456 16,300 -1,397 Descending Tampa TRACON
Fri 11:42:54 AM 28.5667 -83.1000 152° Southeast 387 445 15,000 -1,323 Descending Tampa TRACON
Fri 11:44:06 AM 28.4500 -83.0333 153° Southeast 377 434 13,500 -1,182 Descending Tampa TRACON
Fri 11:45:06 AM 28.3667 -82.9833 152° Southeast 342 394 12,400 -1,200 Descending Tampa TRACON
Fri 11:46:06 AM 28.3000 -82.9333 147° Southeast 297 342 11,100 -1,500 Descending Tampa TRACON
Fri 11:47:06 AM 28.2167 -82.8833 152° Southeast 301 346 9,400 -1,684 Descending Tampa TRACON
Fri 11:48:00 AM 28.1667 -82.8167 130° Southeast 291 335 7,900 -1,632 Descending Tampa TRACON
Fri 11:49:00 AM 28.1167 -82.7500 130° Southeast 288 331 6,300 -1,100 Descending Tampa TRACON
Fri 11:50:00 AM 28.0667 -82.6833 130° Southeast 273 314 5,700 -650 Descending Tampa TRACON
Fri 11:51:00 AM 28.0167 -82.6333 139° Southeast 273 314 5,000 -650 Descending Tampa TRACON
Fri 11:52:00 AM 27.9333 -82.6167 170° South 264 304 4,400 -1,000 Descending Tampa TRACON
Fri 11:52:54 AM 27.8667 -82.6167 180° South 267 307 3,100 -818 Descending Tampa TRACON
Fri 11:54:12 AM 27.8000 -82.5833 156° South 236 272 2,600 -238 Descending Tampa TRACON
Fri 11:55:00 AM 27.8167 -82.5333 69° East 200 230 2,600 -56 Level Tampa TRACON
Fri 11:56:00 AM 27.8667 -82.5333 360° North 182 209 2,500 -550 Descending Tampa TRACON
Fri 11:57:00 AM 27.9000 -82.5333 360° North 150 173 1,500 -1,041 Descending Tampa TRACON
Fri 11:58:01 AM 27.9500 -82.5333 360° North 142 163 400 -1,082 Descending Tampa TRACON

Login

Don't have an account? Register now (free) for customized features, flight alerts, and more!